Total_Precipitation_Accumulation
0.11 0.22 0.38 0.40 0.42 0.35 0.22 0.17 0.14 0.12 0.14 0.13 0.13 0.15 0.16 0.16 0.15 0.14 0.13 0.11 0.13 0.12 0.11 0.12 0.14 0.18 0.20 0.21 0.27 0.32 0.38 0.53 0.66 0.75 0.87 1.06 1.22 1.37 1.50 1.62 1.50 1.32 1.24 1.38
0.06 0.13 0.16 0.14 0.16 0.17 0.16 0.16 0.15 0.10 0.10 0.09 0.10 0.11 0.12 0.11 0.10 0.10 0.10 0.10 0.09 0.08 0.07 0.06 0.06 0.09 0.10 0.11 0.15 0.22 0.28 0.39 0.51 0.64 0.86 1.09 1.37 1.43 1.50 1.63 1.69 1.61 1.51 1.61
0.05 0.05 0.03 0.05 0.06 0.08 0.11 0.15 0.15 0.12 0.08 0.06 0.06 0.07 0.08 0.09 0.09 0.07 0.07 0.08 0.09 0.07 0.06 0.04 0.04 0.05 0.07 0.07 0.09 0.15 0.25 0.41 0.61 0.81 1.10 1.38 1.61 1.67 1.69 1.63 1.71 1.79 1.83 1.86
0.00 0.00 0.01 0.02 0.05 0.09 0.14 0.09 0.08 0.09 0.09 0.08 0.09 0.12 0.09 0.11 0.13 0.12 0.11 0.12 0.14 0.12 0.08 0.06 0.06 0.07 0.08 0.10 0.14 0.22 0.36 0.56 0.82 1.14 1.44 1.66 1.89 1.98 1.81 1.79 1.83 1.82 1.77 1.80
0.00 0.00 0.00 0.00 0.02 0.04 0.06 0.05 0.06 0.07 0.08 0.06 0.05 0.08 0.10 0.14 0.21 0.21 0.19 0.19 0.20 0.18 0.14 0.12 0.13 0.14 0.18 0.23 0.29 0.44 0.66 0.95 1.21 1.41 1.58 1.78 1.90 1.90 1.86 1.82 1.81 1.73 1.71 1.66
0.00 0.00 0.00 0.00 0.00 0.01 0.02 0.05 0.07 0.08 0.10 0.07 0.05 0.10 0.18 0.21 0.24 0.23 0.21 0.20 0.18 0.17 0.19 0.20 0.22 0.28 0.35 0.39 0.51 0.68 0.86 1.13 1.27 1.37 1.49 1.66 1.78 1.81 1.82 1.78 1.79 1.77 1.72 1.60
0.00 0.00 0.00 0.00 0.00 0.01 0.02 0.06 0.12 0.13 0.16 0.16 0.13 0.24 0.34 0.31 0.26 0.22 0.21 0.21 0.19 0.22 0.27 0.28 0.36 0.50 0.58 0.63 0.70 0.84 0.92 1.06 1.15 1.18 1.28 1.41 1.47 1.49 1.51 1.48 1.43 1.37 1.31 1.27
0.00 0.00 0.00 0.00 0.00 0.01 0.01 0.05 0.17 0.21 0.23 0.23 0.24 0.45 0.50 0.37 0.30 0.27 0.24 0.21 0.24 0.33 0.42 0.54 0.66 0.76 0.83 0.83 0.80 0.81 0.92 0.97 0.94 0.94 0.96 1.06 1.11 1.14 1.16 1.11 1.09 1.09 1.11 1.11
0.00 0.00 0.00 0.00 0.00 0.01 0.02 0.06 0.11 0.22 0.20 0.22 0.32 0.60 0.61 0.38 0.32 0.28 0.25 0.26 0.32 0.46 0.66 0.88 1.07 1.18 1.25 1.17 0.97 0.83 0.83 0.81 0.78 0.80 0.82 0.85 0.87 0.89 0.87 0.86 0.83 0.87 0.89 0.87
0.02 0.01 0.00 0.00 0.00 0.01 0.05 0.10 0.19 0.35 0.40 0.37 0.44 0.66 0.68 0.51 0.41 0.35 0.36 0.46 0.62 0.82 1.09 1.34 1.58 1.70 1.68 1.48 1.21 0.93 0.78 0.73 0.68 0.69 0.70 0.72 0.73 0.71 0.66 0.64 0.62 0.60 0.62 0.65
0.02 0.04 0.01 0.01 0.03 0.05 0.11 0.19 0.27 0.41 0.48 0.58 0.68 0.84 0.74 0.69 0.64 0.61 0.68 0.86 1.07 1.34 1.52 1.66 1.81 1.86 1.59 1.41 1.17 0.91 0.76 0.77 0.77 0.75 0.72 0.69 0.65 0.60 0.55 0.52 0.50 0.47 0.47 0.48
0.03 0.06 0.06 0.03 0.07 0.12 0.24 0.38 0.52 0.74 0.71 0.68 0.85 0.96 0.76 0.71 0.79 0.83 0.94 1.00 1.10 1.25 1.27 1.35 1.41 1.36 1.32 1.27 1.10 0.94 0.85 0.84 0.87 0.85 0.83 0.73 0.63 0.57 0.56 0.54 0.47 0.45 0.40 0.39
0.12 0.19 0.17 0.12 0.23 0.31 0.40 0.44 0.48 0.59 0.67 0.69 0.90 1.02 0.70 0.65 0.70 0.86 1.04 1.09 1.16 1.18 1.10 1.10 1.10 1.11 1.14 1.11 0.99 0.97 0.94 0.94 0.93 0.90 0.81 0.72 0.64 0.55 0.51 0.45 0.41 0.45 0.43 0.44
0.16 0.25 0.27 0.28 0.35 0.42 0.50 0.48 0.41 0.47 0.68 0.74 0.89 0.87 0.71 0.67 0.67 0.79 0.92 1.02 0.97 0.91 0.86 0.87 0.91 0.94 1.03 1.00 0.96 0.91 0.87 0.92 1.00 1.06 0.96 0.85 0.73 0.61 0.55 0.48 0.43 0.40 0.41 0.43
0.07 0.10 0.13 0.13 0.15 0.23 0.43 0.54 0.52 0.48 0.51 0.68 0.71 0.64 0.59 0.54 0.61 0.66 0.69 0.66 0.57 0.54 0.55 0.60 0.64 0.64 0.62 0.59 0.61 0.63 0.69 0.80 0.94 1.08 1.07 0.93 0.74 0.61 0.54 0.49 0.42 0.40 0.39 0.39
0.02 0.02 0.02 0.03 0.06 0.15 0.29 0.40 0.42 0.38 0.36 0.44 0.49 0.49 0.40 0.37 0.43 0.44 0.46 0.42 0.39 0.35 0.33 0.31 0.32 0.33 0.34 0.31 0.28 0.27 0.33 0.48 0.73 0.99 0.97 0.75 0.58 0.46 0.41 0.41 0.39 0.35 0.33 0.36
0.00 0.01 0.02 0.03 0.03 0.10 0.30 0.36 0.34 0.33 0.25 0.25 0.31 0.31 0.27 0.29 0.35 0.35 0.37 0.39 0.29 0.22 0.20 0.20 0.20 0.20 0.20 0.19 0.18 0.19 0.26 0.38 0.54 0.64 0.60 0.51 0.40 0.38 0.41 0.42 0.36 0.34 0.33 0.34
0.00 0.03 0.06 0.06 0.08 0.28 0.57 0.52 0.44 0.40 0.22 0.15 0.15 0.16 0.19 0.28 0.30 0.30 0.29 0.28 0.27 0.17 0.11 0.11 0.12 0.13 0.15 0.16 0.19 0.22 0.27 0.34 0.38 0.40 0.40 0.34 0.30 0.31 0.34 0.35 0.34 0.39 0.44 0.41
0.04 0.11 0.14 0.15 0.19 0.41 0.54 0.49 0.49 0.48 0.33 0.13 0.09 0.10 0.09 0.09 0.10 0.11 0.12 0.10 0.10 0.07 0.04 0.03 0.03 0.03 0.05 0.05 0.06 0.08 0.10 0.12 0.12 0.12 0.13 0.12 0.12 0.13 0.14 0.16 0.22 0.33 0.40 0.41
0.08 0.13 0.19 0.21 0.28 0.42 0.36 0.23 0.25 0.37 0.43 0.12 0.05 0.04 0.02 0.01 0.03 0.05 0.06 0.06 0.02 0.01 0.01 0.00 0.00 0.00 0.00 0.00 0.00 0.00 0.00 0.01 0.01 0.01 0.01 0.01 0.02 0.02 0.03 0.06 0.08 0.15 0.19 0.24
0.05 0.11 0.17 0.24 0.42 0.63 0.45 0.25 0.23 0.39 0.39 0.09 0.03 0.01 0.00 0.00 0.00 0.01 0.04 0.05 0.02 0.00 0.00 0.00 0.00 0.00 0.00 0.00 0.00 0.00 0.00 0.00 0.00 0.00 0.00 0.00 0.00 0.00 0.01 0.02 0.03 0.06 0.08 0.12
0.07 0.11 0.16 0.30 0.59 0.82 0.64 0.41 0.34 0.26 0.11 0.03 0.01 0.00 0.00 0.00 0.00 0.01 0.02 0.03 0.02 0.00 0.00 0.00 0.00 0.00 0.00 0.00 0.00 0.00 0.00 0.00 0.00 0.00 0.00 0.00 0.00 0.00 0.01 0.01 0.02 0.02 0.03 0.06
0.02 0.04 0.08 0.21 0.45 0.52 0.46 0.35 0.24 0.17 0.07 0.01 0.00 0.00 0.00 0.00 0.00 0.00 0.01 0.01 0.01 0.00 0.00 0.00 0.00 0.00 0.00 0.00 0.00 0.00 0.00 0.00 0.00 0.00 0.00 0.00 0.00 0.01 0.01 0.01 0.01 0.02 0.03 0.05
0.00 0.00 0.01 0.03 0.09 0.15 0.18 0.18 0.11 0.08 0.05 0.01 0.00 0.00 0.00 0.00 0.00 0.00 0.01 0.01 0.01 0.00 0.00 0.00 0.00 0.00 0.00 0.00 0.00 0.00 0.00 0.00 0.00 0.00 0.00 0.00 0.01 0.01 0.01 0.02 0.03 0.03 0.04 0.05
0.01 0.01 0.01 0.01 0.01 0.02 0.06 0.08 0.07 0.04 0.02 0.00 0.00 0.00 0.00 0.00 0.00 0.00 0.01 0.01 0.01 0.00 0.00 0.00 0.00 0.00 0.00 0.00 0.00 0.00 0.00 0.00 0.00 0.00 0.00 0.00 0.00 0.01 0.01 0.01 0.01 0.02 0.03 0.04
0.00 0.01 0.01 0.01 0.00 0.01 0.03 0.04 0.03 0.02 0.01 0.00 0.00 0.00 0.00 0.00 0.00 0.00 0.00 0.01 0.00 0.00 0.00 0.00 0.00 0.00 0.00 0.00 0.00 0.00 0.00 0.00 0.00 0.00 0.00 0.00 0.00 0.01 0.01 0.01 0.01 0.01 0.02 0.05